FW4518 Weather Reports


Display with metric or nautical units.
time (UTC)temp
F
wind
direction
speed
MPH
gust
MPH
rain 1hr
in
rain 24hr
in
rain mn
in
humidity
%
barometer
mb
20260905174204 55 311 1.0 3.0 0.00 0.02 0.01 83 1018.5
20260905173203 54 12 2.0 5.0 0.00 0.02 0.01 84 1018.5
20260905172203 53 223 0.0 2.0 0.00 0.02 0.01 89 1018.6
20260905171203 51 0.0 1.0 0.00 0.02 0.01 91 1018.5
20260905170203 50 357 0.0 2.0 0.00 0.02 0.01 92 1018.4
20260905165204 49 0.0 0.0 0.00 0.02 0.01 95 1018.4
20260905164203 49 0.0 0.0 0.00 0.02 0.01 95 1018.5
20260905163204 50 235 0.0 3.0 0.00 0.02 0.01 94 1018.5
20260905162204 48 230 0.0 2.0 0.00 0.02 0.01 99 1018.6
20260905161204 46 217 3.0 5.0 0.00 0.02 0.01 99 1018.7
20260905160204 47 231 2.0 4.0 0.00 0.02 0.01 98 1018.7
20260905155204 47 212 1.0 3.0 0.00 0.02 0.01 97 1018.6
20260905154204 47 216 1.0 4.0 0.00 0.02 0.01 97 1018.6
20260905153203 46 204 4.0 6.0 0.00 0.02 0.01 98 1018.6
20260905152204 46 207 5.0 7.0 0.00 0.02 0.01 98 1018.7
20260905151204 47 192 6.0 8.0 0.00 0.02 0.01 97 1018.7
20260905150204 46 203 4.0 7.0 0.00 0.02 0.01 99 1018.6
20260905145204 45 221 3.0 6.0 0.00 0.02 0.01 100 1018.6
20260905144204 44 0.0 0.0 0.00 0.02 0.01 100 1018.5
20260905143204 44 190 2.0 4.0 0.00 0.02 0.01 100 1018.4
20260905142203 43 182 1.0 4.0 0.00 0.02 0.01 100 1018.4
20260905141204 43 204 3.0 7.0 0.00 0.02 0.01 100 1018.3
20260905140204 43 180 3.0 6.0 0.00 0.02 0.01 100 1018.2
20260905135204 43 201 4.0 6.0 0.00 0.02 0.01 100 1018.0
20260905134244 43 207 4.0 6.0 0.00 0.02 0.01 100 1018.1
20260905133224 44 215 2.0 3.0 0.00 0.02 0.01 100 1018.0
20260905132204 44 189 1.0 5.0 0.00 0.02 0.01 100 1017.9
20260905131204 43 199 3.0 6.0 0.00 0.02 0.01 100 1018.0
20260905130204 42 203 3.0 5.0 0.00 0.02 0.01 100 1017.9
20260905125204 42 208 5.0 8.0 0.00 0.02 0.01 100 1017.9
20260905124204 42 199 6.0 8.0 0.00 0.02 0.01 100 1018.0
20260905123204 43 218 3.0 5.0 0.00 0.02 0.01 100 1017.9
20260905122204 43 198 3.0 5.0 0.00 0.02 0.01 100 1018.0
20260905121204 42 206 4.0 6.0 0.00 0.02 0.01 100 1018.0
20260905120204 43 201 4.0 6.0 0.00 0.02 0.01 100 1017.9
20260905115224 43 186 2.0 4.0 0.00 0.02 0.01 100 1017.9
20260905114204 43 204 3.0 5.0 0.00 0.02 0.01 100 1018.0
20260905113204 43 216 3.0 6.0 0.00 0.02 0.01 100 1018.1
20260905112204 41 194 2.0 3.0 0.00 0.02 0.01 100 1018.2
20260905111204 40 0.0 0.0 0.00 0.02 0.01 100 1018.3
20260905110204 40 0.0 0.0 0.00 0.02 0.01 100 1018.3
20260905105204 40 0.0 0.0 0.00 0.02 0.01 100 1018.4
20260905104244 40 0.0 0.0 0.00 0.02 0.01 100 1018.4
20260905103204 41 0.0 0.0 0.00 0.02 0.01 100 1018.3
20260905102204 41 0.0 0.0 0.00 0.02 0.01 100 1018.2
20260905101204 41 0.0 0.0 0.00 0.02 0.01 100 1018.2
20260905100204 41 0.0 0.0 0.00 0.02 0.01 100 1018.2
20260905095204 41 215 1.0 2.0 0.00 0.02 0.01 100 1018.2
20260905094204 42 0.0 0.0 0.00 0.02 0.01 100 1018.2
20260905093204 42 197 1.0 3.0 0.00 0.02 0.01 100 1018.1
20260905092224 42 0.0 0.0 0.00 0.02 0.01 100 1018.2
20260905091204 43 0.0 0.0 0.00 0.02 0.01 100 1018.2
20260905090204 43 228 1.0 3.0 0.00 0.02 0.01 100 1018.1
20260905085204 43 220 0.0 2.0 0.00 0.02 0.01 100 1018.1
20260905084204 43 200 2.0 5.0 0.01 0.02 0.01 100 1017.9
20260905083244 43 211 2.0 4.0 0.01 0.02 0.01 100 1017.8
20260905082224 44 0.0 0.0 0.01 0.02 0.01 100 1017.7
20260905081204 44 0.0 1.0 0.01 0.02 0.01 100 1017.7
20260905080204 43 0.0 0.0 0.01 0.02 0.01 100 1017.7
20260905075204 43 0.0 0.0 0.01 0.02 0.01 100 1017.6
20260905074224 42 0.0 1.0 0.00 0.01 0.00 100 1017.5
20260905073204 42 0.0 0.0 0.00 0.01 0.00 100 1017.4
20260905072204 43 0.0 0.0 0.00 0.01 0.00 100 1017.4
20260905071224 43 0.0 0.0 0.00 0.01 0.00 100 1017.4
20260905070204 43 0.0 0.0 0.00 0.01 0.00 100 1017.2
20260905065204 44 0.0 0.0 0.00 0.01 0.01 100 1017.2
20260905064204 44 0.0 0.0 0.00 0.01 0.01 100 1017.0
20260905063204 45 0.0 0.0 0.00 0.01 0.01 100 1016.9
20260905062204 46 0.0 0.0 0.00 0.01 0.01 100 1016.8
20260905061204 47 0.0 1.0 0.00 0.01 0.01 100 1016.9
20260905060204 47 0.0 0.0 0.00 0.01 0.01 100 1016.9
20260905055204 47 215 2.0 3.0 0.00 0.01 0.01 100 1017.0
20260905054204 48 201 2.0 3.0 0.00 0.01 0.01 100 1017.0
20260905053204 48 206 1.0 3.0 0.00 0.01 0.01 100 1016.9
20260905052204 49 190 2.0 3.0 0.00 0.01 0.01 100 1016.8
20260905051224 49 217 2.0 4.0 0.00 0.01 0.01 100 1016.8
20260905050204 50 219 2.0 4.0 0.00 0.01 0.01 100 1016.7
20260905045204 50 243 1.0 2.0 0.00 0.01 0.01 100 1016.7
20260905044225 51 0.0 0.0 0.00 0.01 0.01 99 1016.6
20260905043205 51 344 0.0 2.0 0.00 0.01 0.01 99 1016.6
20260905042204 50 0.0 0.0 0.00 0.01 0.01 99 1016.6
20260905041204 50 0.0 0.0 0.00 0.01 0.01 98 1016.8
20260905040204 50 0.0 0.0 0.00 0.01 0.01 98 1016.8
20260905035245 50 189 2.0 4.0 0.00 0.01 0.01 98 1017.0
20260905034204 51 193 3.0 4.0 0.00 0.01 0.01 96 1016.9
20260905033205 50 191 1.0 3.0 0.00 0.01 0.01 96 1016.7
20260905032204 50 200 2.0 4.0 0.00 0.01 0.01 98 1016.5
20260905031224 51 201 3.0 5.0 0.00 0.01 0.01 97 1016.4
20260905030205 52 203 2.0 5.0 0.00 0.01 0.01 94 1016.1
20260905025204 53 225 0.0 2.0 0.00 0.01 0.01 89 1015.9
20260905024204 55 0.0 0.0 0.00 0.01 0.01 78 1015.8
20260905023204 55 0.0 0.0 0.00 0.01 0.01 76 1015.9
20260905022205 56 227 0.0 2.0 0.00 0.01 0.01 78 1015.9
20260905021204 56 269 1.0 3.0 0.00 0.01 0.01 76 1015.8
20260905020204 56 0.0 0.0 0.00 0.01 0.01 77 1015.7
20260905015204 56 134 1.0 4.0 0.00 0.01 0.01 76 1015.5
20260905014205 57 143 1.0 4.0 0.00 0.01 0.01 73 1015.3
20260905013205 59 174 1.0 7.0 0.00 0.01 0.01 68 1015.2
20260905012225 62 123 1.0 5.0 0.00 0.01 0.01 66 1015.0
20260905011204 62 334 0.0 3.0 0.00 0.01 0.01 63 1015.0
20260905010204 61 225 0.0 2.0 0.00 0.01 0.01 67 1014.9
20260905005224 59 242 0.0 3.0 0.00 0.01 0.01 69 1014.9
20260905004204 58 194 2.0 5.0 0.00 0.01 0.01 69 1014.8
20260905003205 58 200 1.0 3.0 0.00 0.01 0.01 70 1014.8
20260905002204 57 9 2.0 4.0 0.00 0.01 0.01 70 1014.7
20260905001205 57 6 2.0 6.0 0.00 0.01 0.01 73 1014.7
20260905000204 58 249 0.0 3.0 0.00 0.01 0.01 72 1014.7
20260904235204 57 206 4.0 9.0 0.01 0.01 0.01 74 1014.8
20260904234205 55 188 1.0 2.0 0.01 0.01 0.01 80 1014.7
20260904233204 55 6 1.0 3.0 0.01 0.01 0.01 82 1014.6
20260904232205 54 270 1.0 5.0 0.01 0.01 0.01 82 1014.5
20260904231205 53 226 1.0 3.0 0.01 0.01 0.01 85 1014.6
20260904230205 53 204 5.0 9.0 0.01 0.01 0.01 81 1014.8
20260904225205 56 179 10.0 16.0 0.00 0.00 0.00 70 1014.7
20260904224205 60 161 2.0 5.0 0.00 0.00 0.00 62 1013.9
20260904223205 60 133 2.0 5.0 0.00 0.00 0.00 61 1013.8
20260904222204 61 183 5.0 8.0 0.00 0.00 0.00 59 1013.7
20260904221205 62 136 3.0 9.0 0.00 0.00 0.00 58 1013.7
20260904220207 63 136 3.0 9.0 0.00 0.00 0.00 59 1013.7
20260904215205 62 84 2.0 8.0 0.00 0.00 0.00 60 1013.9
20260904214205 62 114 3.0 7.0 0.00 0.00 0.00 61 1013.9
20260904213205 62 192 4.0 10.0 0.00 0.00 0.00 62 1013.8
20260904212205 61 141 4.0 9.0 0.00 0.00 0.00 64 1013.9
20260904211205 61 117 3.0 9.0 0.00 0.00 0.00 60 1013.9
20260904210205 62 119 2.0 9.0 0.00 0.00 0.00 60 1013.9
20260904205205 59 172 6.0 13.0 0.00 0.00 0.00 65 1014.1
20260904204205 58 153 6.0 12.0 0.00 0.00 0.00 64 1014.1
20260904203205 60 156 5.0 10.0 0.00 0.00 0.00 61 1014.0
20260904202205 60 168 5.0 9.0 0.00 0.00 0.00 60 1014.1
20260904201205 59 160 6.0 9.0 0.00 0.00 0.00 62 1014.2
20260904200205 58 177 7.0 11.0 0.00 0.00 0.00 64 1014.3
20260904195205 58 183 7.0 13.0 0.00 0.00 0.00 64 1014.4
20260904194205 57 158 9.0 14.0 0.00 0.00 0.00 65 1014.5
20260904193205 57 191 8.0 12.0 0.00 0.00 0.00 66 1014.5
20260904192205 57 161 7.0 12.0 0.00 0.00 0.00 66 1014.5
20260904191205 57 197 7.0 12.0 0.00 0.00 0.00 66 1014.4
20260904190205 57 186 9.0 13.0 0.00 0.00 0.00 65 1014.4
20260904185205 57 149 10.0 15.0 0.00 0.00 0.00 65 1014.4
20260904184225 57 175 9.0 14.0 0.00 0.00 0.00 64 1014.4
20260904183205 57 127 10.0 15.0 0.00 0.00 0.00 64 1014.3
20260904182205 57 152 8.0 14.0 0.00 0.00 0.00 64 1014.2
20260904181205 58 168 7.0 11.0 0.00 0.00 0.00 62 1014.1
20260904180205 58 149 6.0 10.0 0.00 0.00 0.00 64 1014.0
20260904175205 57 164 7.0 12.0 0.00 0.00 0.00 64 1014.0